Location: Germigny
(48.9916°N, 2.9443°E)
Time: 15:21:48
(UTC+00:00)

Daily predictions for brighter satellites

Satellite Brightness Start Highest point End
(mag) Time Altitude Azimuth Time Altitude Azimuth Time Altitude Azimuth
COSMOS 2406 3.6 17:16:44 10° NNW 17:22:17 45° NE 17:27:47 10° SE
Cosmos 1934 Rocket 4.3 17:17:45 10° N 17:23:48 45° ENE 17:29:52 10° SE
Nadezhda 3 Rocket 4.1 17:17:53 10° S 17:24:02 61° E 17:30:17 10° NNE
Unknown 3.6 17:21:02 10° WSW 17:25:11 79° SSE 17:29:20 10° ENE
Unknown 3.8 17:22:38 10° W 17:26:25 57° NNW 17:30:13 10° ENE
Unknown 3.6 17:22:38 10° WSW 17:26:47 81° SSE 17:30:57 10° ENE
Cosmos 1825 Rocket 3.5 17:23:25 10° N 17:27:49 79° E 17:32:13 10° SSE
H-2A R/B 4.1 17:28:39 10° NE 17:29:05 10° NE 17:29:31 10° NE
CORIOLIS 4.4 17:24:15 10° S 17:29:36 76° WSW 17:34:59 10° NNW
Cosmos 1953 2.4 17:25:52 10° S 17:29:53 63° E 17:33:55 10° NNE
Cosmos 1953 Rocket 3.6 17:26:00 10° N 17:30:21 58° ENE 17:34:38 10° SSE
Unknown 3.8 17:28:58 10° W 17:32:49 60° NNW 17:36:42 10° ENE
Unknown 3.6 17:29:06 10° WSW 17:33:14 87° SSE 17:37:24 10° ENE
Unknown 3.6 17:29:20 10° WSW 17:33:29 87° SSE 17:37:39 10° ENE
Unknown 3.6 17:30:01 10° WSW 17:34:09 88° SSE 17:38:19 10° ENE
YAOGAN 6 3.0 17:30:56 10° SE 17:34:23 41° ENE 17:37:50 10° N
Unknown 3.1 17:32:22 10° WNW 17:35:26 55° NNE 17:38:29 10° E
Cosmos 1758 3.8 17:33:25 10° SSW 17:37:21 64° W 17:41:20 10° N
Unknown 3.6 17:33:56 10° WSW 17:38:05 89° NNW 17:42:14 10° ENE
Unknown 3.6 17:34:20 10° WSW 17:38:29 89° NNW 17:42:39 10° ENE
Cosmos 1844 Rocket 2.7 17:33:24 10° SSW 17:39:02 75° ESE 17:44:42 10° NNE
Unknown 3.7 17:36:06 10° WSW 17:40:15 85° NNW 17:44:25 10° ENE
FengYun 1-2 T 4.3 17:35:50 10° SSE 17:41:24 66° ENE 17:46:59 10° N
Unknown 3.7 17:39:25 10° WSW 17:43:34 83° NNW 17:47:35 11° ENE
Unknown 3.6 17:39:48 10° WSW 17:43:58 84° NNW 17:47:57 11° ENE
Cosmos 1606 Rocket 3.5 17:40:06 10° S 17:44:29 77° E 17:48:51 10° NNE
Unknown 2.6 17:42:21 10° WNW 17:45:00 70° SSW 17:47:39 10° ESE
Unknown 3.7 17:40:59 10° WSW 17:45:08 83° NNW 17:49:06 11° ENE
Unknown 3.7 17:44:08 10° WSW 17:48:18 82° NNW 17:52:07 12° ENE
Envisat 3.0 17:43:37 10° SSE 17:48:42 90° ENE 17:53:49 10° NNW
BREEZE-M DEB (TANK) 4.2 17:45:47 10° SSW 17:49:26 19° SSE 17:51:13 12° ESE
Meteor 1-16 Rocket 4.2 17:44:13 10° S 17:49:38 56° E 17:54:55 10° NNE
Cosmos 1758 Rocket 4.4 17:47:15 10° NNW 17:51:37 56° W 17:55:59 10° S
Unknown 3.7 17:47:37 10° WSW 17:51:47 78° NNW 17:55:27 13° ENE
Unknown 3.7 17:49:17 10° WSW 17:53:25 77° NNW 17:57:03 13° ENE
Cosmos 1908 4.0 17:51:07 10° SSE 17:54:34 31° E 17:58:03 10° NNE
Unknown 3.7 17:50:58 10° WSW 17:55:06 75° NNW 17:58:39 14° ENE
Cosmos 1461 3.7 17:51:39 10° NNW 17:55:19 32° NE 17:58:03 16° E
Unknown 3.7 17:52:37 10° WSW 17:56:46 74° NNW 18:00:15 14° ENE
Lacrosse 5 rocket 2.9 17:54:20 10° WNW 17:57:43 32° SW 18:01:14 10° SSE
FALCON 9 DEB 3.8 17:54:27 10° WNW 17:57:49 44° N 18:00:08 18° ENE
ASTEX 1 3.3 17:53:09 10° N 17:58:07 71° E 18:03:04 10° S
Cosmos 1356 3.6 17:56:31 10° S 17:59:49 45° E 18:03:09 10° NNE
Unknown 3.8 17:55:58 10° WSW 18:00:06 72° NNW 18:03:27 15° ENE
Cosmos 2278 Rocket 2.9 17:55:44 10° SSE 18:00:35 30° ESE 18:05:29 10° NE
Cosmos 1939 Rocket 3.4 17:57:32 10° SE 18:01:11 36° ENE 18:04:54 10° N
Unknown 3.8 17:57:40 10° WSW 18:01:50 71° NNW 18:05:06 16° ENE
Unknown 3.6 17:59:44 10° WNW 18:03:03 46° N 18:05:05 20° ENE
Unknown 3.8 17:59:19 10° WSW 18:03:26 70° NNW 18:06:39 16° ENE
Unknown 3.8 18:01:16 10° WNW 18:04:39 44° N 18:06:45 20° ENE
Unknown 3.8 18:00:56 10° WSW 18:05:04 70° NNW 18:08:12 17° ENE
Cosmos 1844 3.8 17:59:22 10° SSW 18:05:06 89° WNW 18:10:56 10° NNE
Unknown 3.8 18:01:21 10° WSW 18:05:29 69° NNW 18:08:36 17° ENE
ATLAS 5 CENTAUR R/B 2.4 18:01:26 10° WSW 18:05:42 52° NW 18:10:33 10° NE
SKYMED 2 3.5 18:03:34 10° NNE 18:07:57 85° ESE 18:12:18 10° SSW
Unknown 3.8 18:04:05 10° WSW 18:08:14 70° NNW 18:11:14 18° ENE
Cosmos 1328 3.7 18:04:56 10° N 18:08:57 82° E 18:12:55 10° SSE
Unknown 3.8 18:07:28 10° WSW 18:11:36 68° NNW 18:14:29 19° ENE
Cosmos 1076 Rocket 4.5 18:09:04 10° NNE 18:12:50 27° ENE 18:14:33 21° ESE
Unknown 3.8 18:09:07 10° WSW 18:13:15 67° NNW 18:16:03 20° ENE
YAOGAN 1 2.5 18:09:00 10° SSE 18:13:20 89° W 18:17:41 10° NNW
Unknown 3.9 18:11:03 10° W 18:15:10 63° NNW 18:17:53 20° ENE
ATLAS CENTAUR R/B 4.0 18:14:11 10° NNW 18:15:49 12° N 18:17:25 10° NNE
Unknown 3.9 18:12:25 10° W 18:16:32 65° NNW 18:19:12 21° ENE
Falcon 9 debris 3.5 18:14:08 10° WNW 18:17:31 50° NNE 18:18:58 28° ENE
Unknown 3.9 18:14:06 10° W 18:18:13 64° NNW 18:20:49 22° ENE
Cosmos 292 Rocket 3.6 18:15:33 10° SSW 18:20:15 69° ESE 18:25:00 10° NNE
Unknown 3.9 18:17:28 10° W 18:21:35 62° NNW 18:24:03 23° ENE
Unknown 3.9 18:19:09 10° W 18:23:17 61° NNW 18:25:40 24° ENE
CSL-04 Rocket 3.9 18:18:04 10° S 18:23:37 76° WSW 18:29:08 10° NNW
CZ-4 R/B 2.3 18:20:02 10° S 18:24:07 53° W 18:28:16 10° NNW
Unknown 3.9 18:20:50 10° W 18:24:56 61° NNW 18:27:15 24° ENE
USA 238 DEB 4.3 18:19:21 10° S 18:25:07 32° ESE 18:28:53 19° ENE
USA 238 4.3 18:19:29 10° S 18:25:14 32° ESE 18:28:56 19° ENE
Cosmos 1726 Rocket 4.5 18:21:44 10° SSW 18:26:00 51° WNW 18:30:18 10° N
Unknown 4.0 18:22:30 10° W 18:26:36 60° NNW 18:28:51 25° ENE
Unknown 3.6 18:24:15 10° WNW 18:27:42 51° NNE 18:28:48 35° ENE
Shenzhou-11 Module 3.4 18:27:12 10° SW 18:29:27 22° S 18:29:46 22° S
Unknown 4.0 18:25:50 10° W 18:29:56 59° NNW 18:32:02 27° NE
Lacrosse 5 2.0 18:25:23 10° NW 18:30:24 58° NNE 18:32:48 29° E
Cosmos 1726 2.4 18:27:39 10° SSW 18:31:17 66° W 18:34:56 10° N
Ariane Rocket 2.9 18:26:15 10° SSE 18:31:17 68° ENE 18:36:23 10° N
Unknown 4.0 18:27:20 10° W 18:31:25 57° NNW 18:33:27 27° NE
NOAA 11 4.1 18:26:01 10° SSE 18:31:27 79° ENE 18:36:55 10° NNW
Cosmos 2228 4.4 18:27:22 10° SSW 18:31:32 42° WNW 18:35:42 10° N
Unknown 4.1 18:27:49 10° W 18:31:54 55° NNW 18:33:54 27° NE
Cosmos 1242 Rocket 3.9 18:29:12 10° NNW 18:32:43 42° W 18:36:13 10° SSW
Unknown 4.1 18:29:27 10° W 18:33:32 55° NNW 18:35:29 28° NE
Unknown 4.0 18:32:30 10° W 18:36:36 56° NNW 18:38:25 30° NE
CZ-2D R/B 3.3 18:35:16 10° S 18:39:07 81° WSW 18:43:01 10° NNW
ARGOS 4.0 18:38:25 28° ENE 18:39:16 30° ENE 18:43:56 10° N
Unknown 4.1 18:35:51 10° W 18:39:55 55° NNW 18:41:36 32° NE
Cosmos 1833 Rocket 2.6 18:34:25 10° NNW 18:40:04 78° ENE 18:44:18 18° SSE
Cosmos 2058 Rocket 3.8 18:37:04 10° SSW 18:41:20 53° WNW 18:45:38 10° N
Unknown 4.1 18:37:34 10° W 18:41:39 55° NNW 18:43:15 33° NE
Cosmos 921 Rocket 4.1 18:37:33 10° SW 18:41:54 48° WNW 18:46:15 10° N
Unknown 4.1 18:39:11 10° W 18:43:16 54° NNW 18:44:48 34° NE
Unknown 4.1 18:39:32 10° W 18:43:33 52° N 18:45:00 34° NE
Unknown 4.1 18:40:54 10° W 18:44:58 54° NNW 18:46:26 35° NE
Cosmos 1339 Rocket 4.4 18:41:08 10° S 18:47:13 89° W 18:53:25 10° N
Unknown 4.2 18:45:06 10° W 18:49:03 48° N 18:50:10 37° NE
SPOT 3 Rocket 3.9 18:48:35 37° E 18:49:37 42° ENE 18:54:30 10° N
Cosmos 1777 Rocket 4.5 18:45:29 10° NNW 18:50:38 61° WSW 18:55:45 10° S
NOSS 3-2 (A) 3.9 18:45:36 10° S 18:50:48 36° ESE 18:51:20 35° ESE
Unknown 4.1 18:47:31 10° W 18:51:35 52° N 18:52:46 38° NE
Unknown 3.9 18:48:26 10° WNW 18:52:03 46° N 18:52:29 43° NNE
HJ-1C 3.3 18:51:33 57° SSE 18:52:10 90° N 18:55:33 10° NNW
Unknown 4.1 18:49:15 10° W 18:53:19 51° N 18:54:24 39° NE
Unknown 4.2 18:50:55 10° W 18:54:58 51° N 18:55:59 40° NE
NOSS 3-3 (A) 4.4 18:48:03 10° NW 18:55:24 72° NE 18:59:43 31° ESE
NOSS 3-3 (C) 4.5 18:48:09 10° NW 18:55:30 72° NE 18:59:47 31° ESE
Cosmos 1459 Rocket 4.0 18:49:39 10° N 18:55:45 55° ENE 18:58:57 28° SE
COSMO-SKYMED 1 4.3 18:51:59 10° N 18:55:55 33° WNW 18:59:49 10° SW
Unknown 4.2 18:52:33 10° W 18:56:36 51° N 18:57:33 41° NE
Unknown 4.2 18:54:14 10° W 18:58:17 50° N 18:59:10 42° NNE
Cosmos 1605 Rocket 4.5 18:52:23 10° NNW 18:58:31 61° W 19:04:30 10° S
Cosmos 2058 3.1 18:54:25 10° N 18:58:10 51° NE 18:58:10 51° NE
Gbstr 26 Del rocket 4.1 18:54:36 10° WNW 19:00:49 79° SSW 19:04:05 36° SE
Unknown 4.2 18:57:37 10° W 19:01:40 50° N 19:02:24 44° NNE
Cosmos 2082 Rocket 2.1 18:56:26 10° NNW 19:02:12 81° ENE 19:04:37 36° SE
Starlink (trailer) 4.1 18:59:17 10° W 19:03:19 50° N 19:03:59 45° NNE
SJ 16-02 2.9 19:00:05 10° N 19:02:24 22° NNE 19:02:24 22° NNE
Abrixas rocket 4.2 19:01:43 10° SW 19:02:52 19° SSW 19:02:52 19° SSW
Unknown 4.1 19:00:57 10° W 19:04:59 49° N 19:05:34 45° NNE
Unknown 4.0 19:01:30 10° WNW 19:05:13 45° N 19:05:15 45° N
Unknown 4.1 19:02:33 10° W 19:06:36 49° N 19:07:07 46° NNE
Resurs 01 Rocket 3.5 19:09:04 18° NNE 19:09:04 18° NNE 19:10:34 10° N
H-2A R/B 2.2 19:06:53 49° E 19:07:16 50° ENE 19:12:29 10° N
SJ-6B 3.9 19:08:58 31° N 19:08:58 31° N 19:11:08 10° N
Cosmos 1727 Rocket 3.9 19:02:30 10° S 19:08:41 88° W 19:14:54 10° N
Unknown 4.1 19:08:05 10° WNW 19:11:44 46° N 19:11:44 46° N
Unknown 4.2 19:09:03 10° W 19:13:05 48° N 19:13:18 47° N
Unknown 4.2 19:09:18 10° W 19:13:20 48° N 19:13:33 48° N
Unknown 4.2 19:09:58 10° W 19:14:00 48° N 19:14:11 48° N
Okean 3 Rocket 4.4 19:09:58 10° N 19:13:09 39° NNE 19:13:09 39° NNE
Cosmos 1802 Rocket 4.0 19:09:21 10° N 19:15:47 65° ENE 19:17:49 44° SE
Unknown 4.2 19:13:55 10° W 19:17:56 48° N 19:17:57 48° N
Unknown 4.2 19:14:20 10° W 19:18:21 48° N 19:18:21 48° N
Cosmos 2173 Rocket 3.8 19:12:47 10° N 19:19:07 80° E 19:22:02 34° SSE
Unknown 4.3 19:16:07 10° WNW 19:20:03 47° N 19:20:03 47° N
Unknown 4.3 19:19:27 10° WNW 19:23:14 47° NNW 19:23:14 47° NNW
SJ-11-01 4.3 19:22:27 52° S 19:23:34 76° WSW 19:28:17 10° NNW
Unknown 4.3 19:19:49 10° WNW 19:23:36 47° NNW 19:23:36 47° NNW
Unknown 4.4 19:21:01 10° WNW 19:24:45 46° NNW 19:24:45 46° NNW
Unknown 4.5 19:24:10 10° WNW 19:27:46 45° NNW 19:27:46 45° NNW
In-Cosmos 22 Rocket 4.0 19:24:23 10° NNW 19:29:48 87° E 19:30:27 70° SSE
Cosmos 1898 Rocket 3.6 19:27:47 10° NNW 19:32:33 65° NNE 19:32:33 65° NNE
Cosmos 1461 4.0 19:30:39 10° NW 19:34:28 39° WSW 19:34:28 39° WSW
ADEOS Rocket 3.4 19:27:43 10° NNE 19:35:29 67° ESE 19:42:42 10° S
CZ-2C R/B 3.5 19:37:01 54° NE 19:37:01 54° NE 19:41:59 10° N
Cosmos 1725 Rocket 4.0 19:31:22 10° N 19:37:16 62° ENE 19:37:16 62° ENE
Cosmos 2100 Rocket 4.1 19:33:47 10° NNW 19:39:58 70° W 19:43:19 28° S
Cosmos 2084 Rocket 4.2 19:36:03 10° NW 19:39:27 52° NW 19:39:27 52° NW
Cosmos 1000 Rocket 4.3 19:34:35 10° S 19:40:46 88° E 19:47:04 10° N
Cosmos 2278 Rocket 2.9 19:38:54 10° SW 19:44:25 52° NW 19:50:00 10° NNE
ATLAS 5 CENTAUR R/B 4.0 19:48:05 10° WNW 19:51:32 19° NNW 19:53:18 17° N
ATLAS CENTAUR R/B 3.9 19:53:19 10° NNW 19:55:01 16° N 19:55:01 16° N
Cosmos 2016 Rocket 4.1 19:56:34 10° NNW 20:02:49 73° W 20:03:18 70° SW
Lacrosse 5 3.3 20:08:33 10° WNW 20:12:00 34° W 20:12:00 34° W
USA 238 DEB 3.8 20:08:52 10° SW 20:15:35 69° NW 20:16:23 64° N
USA 238 3.8 20:08:59 10° SW 20:15:42 70° NW 20:16:26 65° N
ARGOS 4.0 20:19:56 46° WNW 20:19:56 46° WNW 20:24:36 10° NNW
SJ 16-02 4.1 20:38:26 10° NW 20:39:24 16° NW 20:39:24 16° NW
Resurs 01 Rocket 4.4 20:46:39 15° NNW 20:46:39 15° NNW 20:47:28 10° NNW
Cosmos 2082 Rocket 4.4 20:41:47 10° WNW 20:45:35 18° W 20:46:31 18° WSW
H-2A R/B 3.9 20:47:31 27° W 20:47:31 27° W 20:51:30 10° NW
